METEOR 2-8 DEB

Satellite information

Favourite Embed

Satellite Type and Status

DEBRISIN ORBIT

Key statistics

Satellite METEOR 2-8 DEB at a glance.

Uptime

15914

Days in orbit

Revolutions

≈ 14.4

Per day

Orbit

LEO

Low Earth Orbit

Inclination

82.5

Latest

Satellite identification and parameters

Extended collection of information and parameters for METEOR 2-8 DEB.

Object identification

Identified? True

Debris? True

Object name: METEOR 2-8 DEB

International designator: 1982-025AK

Object number (NORAD): 36349

Object ID (CCSDS): 36349

Country: COMMONWEALTH OF INDEPENDENT STATES (CIS)

Current information (Y/N): Y

RCS size: SMALL

Orbital parameters

Period: 100.13 minutes

Inclination: 82.5036 deg

SMA: 7142.805 km

Apoapsis: 776.005 km

Periapsis: 753.335 km

RAAN: 345.793 deg

Eccentricy: 0.00158692

Argument of periapsis: 202.3056 deg

Mean anomaly: 157.7446 deg

Mean motion: 14.381347 rev/day

Mean motion (dot): 0.0001326 rev/day2

B* drag term: 0.0043565749 1/REarth

Two-line elements (TLE)

Creation date: Oct. 19, 2025, 2:20 a.m.

Reference frame: TEME

Reference center: EARTH

Epoch: Oct. 18, 2025, 9:21 p.m. UTC

TLE line 0: 0 METEOR 2-8 DEB

TLE line 1: 1 36349U 82025AK 25291.89022873 .00013260 00000-0 43566-2 0 9998

TLE line 2: 2 36349 82.5036 345.7930 0015869 202.3056 157.7446 14.38134700172149

Live tracking on map

Real-time ground track for satellite METEOR 2-8 DEB.

In-orbit conjunctions

A list of the most updated potential collisions computed for object METEOR 2-8 DEB.

Target Orbit TCA Probability of collision Miss distance Type
CZ-2C R/B SSO 2025-08-27 09:25:55 0.0006231011 198.0 (m) ROCKET BODY
SL-8 R/B LEO 2025-03-12 19:24:58 0.0001088043 299.0 (m) ROCKET BODY
CZ-6A DEB LEO 2024-11-27 01:53:34 0.0001609663 615.0 (m) DEBRIS
CZ-6A DEB LEO 2024-11-19 17:41:19 0.0001508498 978.0 (m) DEBRIS
CZ-6A DEB LEO 2024-09-22 09:53:34 0.0001689755 184.0 (m) DEBRIS

Associated space launch

Second generation soviet meteorological satellite

METEOR 2-8 DEB was lifted into orbit during the mission ‘Tsiklon-3 | Meteor-2 8’, on board a Tsiklon-3 space rocket.

The launch took place on March 25, 1982, 9:50 a.m. from 32/1.

For more information about the launch, click the button.

Launch to space Tsiklon-3 | Meteor-2 8
Tsiklon-3 | Meteor-2 8

Agency: N/A

Status: Launch Successful

Launch date: March 25, 1982, 9:50 a.m. UTC

Rocket: Tsiklon-3

Launch pad: 32/1

Location: Plesetsk Cosmodrome, Russian Federation

...

Latest news about this satellite

There are no fresh news available about this satellite. Check back as we update our databases every day.


Newsletter sign-up

Weekly statistics, charts and insights to help you stay on top of the space industry.